Back to catalog

NAVSTAR 28

USA 85

AliveNavigationMEO
NORAD 22231·PAYLOAD·🇺🇸 United States

Launched Nov 22, 1992 from Cape Canaveral Space Force Station

Loading…

Next Passes (next 24 hours)

TLE

FreshSource: Space-Track

Epoch: Sep 13, 2026, 20:39 UTC

1 22231U 92079A   26256.86064584  .00000006  00000-0  00000-0 0  9995
2 22231  55.5949 110.7632 0024748   8.3814 351.7499  1.89108681 63816

Track NAVSTAR 28 in real time with AllMySat

Download on the App Store